カタログに戻る

STARLINK-5793

運用中通信VLEO
NORAD 56038·PAYLOAD·🇺🇸 United States

打ち上げ Mar 24, 2023 から Cape Canaveral Space Force Station

Loading…

次のパス (今後24時間)

TLE

最新Source: CelesTrak SupGP

元期: Sep 14, 2026, 22:15 UTC

1 56038C 23042BE  26257.92756944  .00048454  00000+0  17551-2 0  2573
2 56038  43.0015  56.8470 0001433 274.5463  59.1133 15.27553260    18

AllMySatでSTARLINK-5793をリアルタイム追跡

Download on the App Store